Tracking 32407 objects as of 6-Dec-2025
HD Live streaming from Space Station
objects crossing your sky now

BSAT-2C

Track BSAT-2C now!
BSAT-2C is classified as:


NORAD ID: 27830
Int'l Code: 2003-028A
Perigee: 36,062.1 km
Apogee: 36,129.4 km
Inclination: 9.7 °
Period: 1,451.6 minutes
Semi major axis: 42466 km
RCS: 12.6191 m2 (large)
Launch date: June 11, 2003
Source: Japan (JPN)
Launch site: FRENCH GUIANA (FRGUI)

Backup to BSAT-2A; direct digital broadcasts to homes in Japan and neighboring countries through its Ku-band transponders.
Your satellite tracking list
Your tracking list is empty




NASA's NSSDC Master Catalog

Two Line Element Set (TLE):
1 27830U 03028A   25337.99779569 -.00000226  00000-0  00000-0 0  9995
2 27830   9.7462  53.9045 0007928 237.4511 123.8145  0.99204113 44725
Source of the keplerian elements: AFSPC